Location: Caltech
(34.1382°N, 118.1253°W)
Time: 14:54:31
(UTC-07:00)

AO-7 - Visible Passes

Search period start: 04 August 2015 00:00
Search period end: 14 August 2015 00:00
Orbit: 1440 x 1458 km, 101.5° (Epoch: 04 August)

Date Brightness Start Highest point End Pass type
(mag) Time Alt. Az. Time Alt. Az. Time Alt. Az.
04 Aug ? 03:55:18 10° NE 04:02:16 30° E 04:09:24 10° SSE visible
05 Aug ? 04:47:19 10° NNE 04:55:37 69° ESE 05:03:52 10° S visible
06 Aug ? 03:48:37 10° NE 03:55:14 27° E 04:02:05 10° SSE visible
06 Aug ? 05:40:21 10° N 05:48:28 57° WNW 05:56:29 10° SW visible
07 Aug ? 04:40:25 10° NNE 04:48:38 62° ESE 04:56:50 10° S visible
08 Aug ? 03:41:58 10° NE 03:48:10 24° E 03:54:42 10° SSE visible
08 Aug ? 05:33:21 10° N 05:41:34 63° WNW 05:49:40 10° SSW visible
09 Aug ? 04:33:33 10° NNE 04:41:40 56° ESE 04:49:47 10° S visible
10 Aug ? 03:35:23 10° NE 03:41:07 21° E 03:47:14 10° SE visible
10 Aug ? 05:26:22 10° N 05:34:39 70° WNW 05:42:50 10° SSW visible
11 Aug ? 04:26:42 10° NNE 04:34:42 51° E 04:42:41 10° S visible
12 Aug ? 03:28:53 10° NE 03:34:03 19° E 03:39:42 10° SE visible
12 Aug ? 05:19:24 10° NNE 05:27:43 77° WNW 05:35:58 10° SSW visible
13 Aug ? 04:19:52 10° NNE 04:27:42 45° E 04:35:34 10° S visible
